Content
SEND FEEDBACK

Daily
Averages
Monthly
Summary
United States of America

MANGILAO, GUAM


Home > North America > United States > Guam
Elevation: 18 meters     Latitude: 13 27N     Longitude: 144 49E

WEATHER
 
SELECT A DAY
Number of Records: 342,166;   Date Range: 1/1/95 - 8/12/14
 
SHARE

PRINT THIS DATA

[ ← Previous Day ]
WEATHER ALMANAC - 25 SEPTEMBER, 2013
[ Next Day → ]
[ °F ]   °C
Weather ElementAverageHighLow
Temperature27.9 °C31 °C (1:25 pm)22.6 °C (2:58 am)
Dewpoint24.4 °C26 °C (9:48 am)21.9 °C (3:58 pm)
Humidity81.9 %96 % (12:58 am)70 % (12:56 pm)
Barometer1007.5 hPa1010.8 hPa (9:43 am)1004.1 hPa (12:58 pm)
Wind Speed16.1 km/h24.1 km/h (3:18 pm)
Wind Gust31.5 km/h (12:30 pm)
Weather ElementAverage
Visibility15.9 km
Wind DirectionSW (230.2 °)

Weather ElementTotal
Precipitation---
Cooling Degree Days8.5 (Base 18.3)
Growing Degree Days16.8 (Base 10)
Averaged from 47 records on 25 September, 2013
WEATHER CONDITIONS BREAKOUT
WIND DIRECTION BREAKOUT
WEATHER BY HOUR - 25 SEPTEMBER, 2013
[ °F ]   °C
Local TimeTemperatureDewpointHumidityBarometerVisibilityWind DirectionWind SpeedGust SpeedPrecipitationEventsConditions
12:16 AM23 °C22 °C94 %1009.8 hPa12.9 kmSSW (210°)9.3 km/hScattered Clouds
12:58 AM24.9 °C24.3 °C96 %1005.4 hPa16.1 kmSW (220°)13 km/h0 mmPartly Cloudy
1:58 AM24.4 °C23.7 °C96 %1005.1 hPa16.1 kmSSW (210°)13 km/hScattered Clouds
2:58 AM22.6 °C22 °C96 %1005.1 hPa16.1 kmSSW (210°)7.4 km/hClear
3:58 AM24 °C23.3 °C96 %1005.4 hPa16.1 kmSW (220°)11.1 km/hClear
4:58 AM24.5 °C23.7 °C95 %1005.4 hPa16.1 kmSSW (210°)11.1 km/hClear
5:58 AM25.6 °C24.9 °C96 %1005.4 hPa16.1 kmSSW (210°)9.3 km/hClear
6:58 AM25.7 °C25.1 °C96 %1006.1 hPa16.1 kmSSW (200°)9.3 km/hClear
7:58 AM28.1 °C25.5 °C86 %1006.8 hPa16.1 kmSSW (210°)13 km/hPartly Cloudy
8:58 AM28.2 °C25.5 °C85 %1007.1 hPa16.1 kmWSW (240°)18.5 km/hMostly Cloudy
9:43 AM29 °C25 °C79 %1010.8 hPa16.1 kmSW (230°)16.7 km/hMostly Cloudy
9:48 AM30 °C26 °C79 %1010.8 hPa16.1 kmSSW (210°)16.7 km/hMostly Cloudy
9:53 AM30 °C26 °C79 %1010.8 hPa16.1 kmSW (220°)20.4 km/hMostly Cloudy
9:58 AM29.9 °C25.5 °C77 %1006.8 hPa16.1 kmSW (230°)20.4 km/hScattered Clouds
10:43 AM28 °C24 °C79 %1010.2 hPa16.1 kmSouth (180°)20.4 km/hMostly Cloudy
10:58 AM28.2 °C24.4 °C80 %1006.1 hPa16.1 kmSSW (210°)16.7 km/hMostly Cloudy
11:08 AM28 °C24 °C79 %1010.2 hPa16.1 kmSSW (210°)13 km/hMostly Cloudy
11:18 AM28 °C24 °C79 %1009.8 hPa16.1 kmSouth (190°)16.7 km/hMostly Cloudy
11:58 AM28.6 °C24.2 °C77 %1005.4 hPa16.1 kmSouth (190°)22.2 km/hScattered Clouds
12:30 PM30 °C26 °C79 %1008.8 hPa16.1 kmSW (220°)20.4 km/h31.5 km/hRainLight Rain
12:46 PM29 °C25 °C79 %1008.5 hPa16.1 kmSSW (210°)18.5 km/hMostly Cloudy
12:51 PM29 °C24 °C74 %1008.5 hPa16.1 kmSSW (210°)20.4 km/hMostly Cloudy
12:56 PM30 °C24 °C70 %1008.5 hPa16.1 kmWSW (250°)20.4 km/h31.5 km/hMostly Cloudy
12:58 PM29.4 °C24.3 °C74 %1004.1 hPa16.1 kmWSW (240°)18.5 km/h31.5 km/h0 mmMostly Cloudy
1:03 PM30 °C24 °C70 %1008.5 hPa16.1 kmWSW (250°)20.4 km/h31.5 km/hMostly Cloudy
1:05 PM30 °C24 °C70 %1008.5 hPa16.1 kmWest (270°)20.4 km/hMostly Cloudy
1:10 PM30 °C24 °C70 %1008.5 hPa16.1 kmSW (230°)22.2 km/hMostly Cloudy
1:20 PM30 °C25 °C74 %1008.5 hPa16.1 kmWSW (250°)16.7 km/hMostly Cloudy
1:25 PM31 °C25 °C70 %1008.5 hPa16.1 kmWest (260°)20.4 km/hMostly Cloudy
1:40 PM30 °C26 °C79 %1008.1 hPa16.1 kmWSW (240°)18.5 km/hMostly Cloudy
1:58 PM30.6 °C25.6 °C74 %1004.1 hPa16.1 kmSouth (190°)20.4 km/hScattered Clouds
2:28 PM31 °C26 °C75 %1008.5 hPa16.1 kmSW (220°)16.7 km/hMostly Cloudy
2:33 PM30 °C24 °C70 %1008.5 hPa16.1 kmWest (260°)18.5 km/hMostly Cloudy
2:48 PM29 °C25 °C79 %1008.5 hPa16.1 kmSW (230°)20.4 km/hOvercast
2:54 PM28 °C24 °C79 %1008.5 hPa16.1 kmSSW (210°)20.4 km/hOvercast
2:58 PM26.8 °C23.6 °C83 %1004.4 hPa11.3 kmSW (220°)16.7 km/hOvercast
3:18 PM27 °C22 °C74 %1008.8 hPa16.1 kmWest (270°)24.1 km/hMostly Cloudy
3:33 PM30 °C25 °C74 %1008.8 hPa16.1 kmWest (280°)18.5 km/hScattered Clouds
3:58 PM26.8 °C21.9 °C74 %1004.7 hPa16.1 kmWest (270°)20.4 km/hPartly Cloudy
4:58 PM29.1 °C24.6 °C77 %1005.4 hPa16.1 kmWSW (250°)18.5 km/hClear
5:58 PM28.1 °C25.3 °C85 %1006.1 hPa16.1 kmWest (260°)14.8 km/hScattered Clouds
6:58 PM27.2 °C25.2 °C89 %1007.1 hPa16.1 kmWSW (250°)13 km/hPartly Cloudy
7:58 PM26.7 °C25.2 °C91 %1007.5 hPa16.1 kmWSW (250°)11.1 km/hClear
8:58 PM26.5 °C25.2 °C93 %1007.8 hPa16.1 kmWSW (240°)9.3 km/hMostly Cloudy
9:58 PM26.4 °C25.2 °C93 %1008.1 hPa16.1 kmWest (270°)5.6 km/hClear
10:58 PM26.2 °C24.9 °C92 %1008.1 hPa16.1 kmWSW (250°)3.7 km/hClear
11:58 PM23.3 °C22.3 °C94 %1007.5 hPa16.1 kmWest (260°)7.4 km/hPartly Cloudy
Hourly data recorded from PGUA, located 0 kilometers away from Mangilao, Guam







STORIES FROM OUR PARTNERS